Location: Beuerbach
(48.1459°N, 10.9174°E)
Time: 01:54:01
(UTC+00:00)

Meteor 1-21 - Pass Details

Date: 13 August 2024
Orbit: 845 x 885 km, 81.2° (Epoch: 09 September)

Event Time Altitude Azimuth Distance (km) Brightness Sun altitude
Rises 22:16:29 0° 359° (N) 3,419 8.5 -25.9°
Reaches altitude 10° 22:19:54 10° 20° (NNE) 2,481 7.3 -26.1°
Maximum altitude 22:23:21 16° 59° (ENE) 2,062 6.3 -26.3°
Enters shadow 22:25:28 14° 84° (E) 2,229 6.3 -26.4°
